• Em Portugal
  • Lista de países
  • Para 7 dias
  • Temperatura da água
  • Mapas de satélite
  • Mapa do tempo
  • Widgets de tempo
  • user-avatar
    Iniciar Sessão

    Previsão horária em Mostar

    Hoje, 27 Abril, Sexta-feira

    Tempo Temperatura Precipitação Vento Pressão Humidade
    00:00 +18°C° 0 mm 2 m/s 754 mmHg 75%
    01:00 +18°C° 0 mm 2 m/s 754 mmHg 77%
    02:00 +17°C° 0 mm 2 m/s 754 mmHg 78%
    03:00 +17°C° 0 mm 2 m/s 754 mmHg 80%
    04:00 +17°C° 0 mm 3 m/s 754 mmHg 82%
    05:00 +17°C° 0 mm 3 m/s 754 mmHg 79%
    06:00 +18°C° 0 mm 3 m/s 754 mmHg 76%
    07:00 +19°C° 0 mm 3 m/s 754 mmHg 74%
    08:00 +21°C° 0 mm 3 m/s 754 mmHg 67%
    09:00 +24°C° 0 mm 2 m/s 754 mmHg 60%
    10:00 +25°C° 0 mm 2 m/s 754 mmHg 53%
    11:00 +27°C° 0 mm 2 m/s 754 mmHg 50%
    12:00 +28°C° 0 mm 2 m/s 754 mmHg 46%
    13:00 +29°C° 0 mm 2 m/s 753 mmHg 43%
    14:00 +28°C° 0 mm 2 m/s 753 mmHg 44%
    15:00 +28°C° 0 mm 2 m/s 753 mmHg 46%
    16:00 +28°C° 0 mm 2 m/s 752 mmHg 48%
    17:00 +26°C° 0 mm 1 m/s 753 mmHg 55%
    18:00 +24°C° 0 mm 1 m/s 753 mmHg 63%
    19:00 +22°C° 0 mm 1 m/s 753 mmHg 70%
    20:00 +21°C° 0 mm 1 m/s 753 mmHg 70%
    21:00 +21°C° 0 mm 1 m/s 753 mmHg 70%
    22:00 +20°C° 0 mm 1 m/s 754 mmHg 71%
    23:00 +19°C° 0 mm 2 m/s 754 mmHg 70%

    Amanhã, 28 Abril, Sábado

    Tempo Temperatura Precipitação Vento Pressão Humidade
    00:00 +19°C° 0 mm 2 m/s 754 mmHg 69%
    01:00 +19°C° 0 mm 2 m/s 754 mmHg 68%
    02:00 +19°C° 0 mm 2 m/s 753 mmHg 67%
    03:00 +18°C° 0 mm 2 m/s 753 mmHg 65%
    04:00 +18°C° 0 mm 2 m/s 753 mmHg 64%
    05:00 +19°C° 0 mm 2 m/s 753 mmHg 63%
    06:00 +21°C° 0 mm 2 m/s 753 mmHg 61%
    07:00 +23°C° 0 mm 2 m/s 754 mmHg 59%
    08:00 +24°C° 0 mm 2 m/s 754 mmHg 55%
    09:00 +26°C° 0 mm 2 m/s 754 mmHg 52%
    10:00 +28°C° 0 mm 3 m/s 754 mmHg 48%
    11:00 +28°C° 0 mm 3 m/s 753 mmHg 47%
    12:00 +28°C° 0 mm 3 m/s 753 mmHg 47%
    13:00 +28°C° 0 mm 3 m/s 753 mmHg 47%
    14:00 +28°C° 0,1 mm 3 m/s 753 mmHg 47%
    15:00 +28°C° 0,1 mm 2 m/s 753 mmHg 48%
    16:00 +27°C° 0,1 mm 2 m/s 752 mmHg 49%
    17:00 +26°C° 0 mm 1 m/s 752 mmHg 55%
    18:00 +24°C° 0 mm 1 m/s 752 mmHg 60%
    19:00 +22°C° 0 mm 1 m/s 752 mmHg 66%
    20:00 +22°C° 0 mm 1 m/s 753 mmHg 66%
    21:00 +21°C° 0 mm 1 m/s 753 mmHg 66%
    22:00 +21°C° 0 mm 1 m/s 753 mmHg 66%
    23:00 +21°C° 0 mm 1 m/s 753 mmHg 66%

    Depois de amanhã, 29 Abril, Domingo

    Tempo Temperatura Precipitação Vento Pressão Humidade
    00:00 +21°C° 0 mm 1 m/s 753 mmHg 65%
    01:00 +20°C° 0 mm 1 m/s 753 mmHg 65%
    02:00 +20°C° 0 mm 1 m/s 753 mmHg 64%
    03:00 +20°C° 0 mm 1 m/s 753 mmHg 64%
    04:00 +20°C° 0 mm 1 m/s 752 mmHg 64%
    05:00 +21°C° 0 mm 1 m/s 753 mmHg 63%
    06:00 +22°C° 0 mm 1 m/s 753 mmHg 61%
    07:00 +23°C° 0 mm 1 m/s 753 mmHg 60%
    08:00 +25°C° 0 mm 1 m/s 753 mmHg 55%
    09:00 +26°C° 0 mm 1 m/s 752 mmHg 50%
    10:00 +28°C° 0 mm 1 m/s 752 mmHg 44%
    11:00 +28°C° 0 mm 1 m/s 752 mmHg 43%
    12:00 +29°C° 0 mm 2 m/s 752 mmHg 42%
    13:00 +29°C° 0 mm 2 m/s 752 mmHg 40%
    14:00 +29°C° 0 mm 2 m/s 751 mmHg 43%
    15:00 +28°C° 0 mm 2 m/s 751 mmHg 46%
    16:00 +27°C° 0 mm 3 m/s 751 mmHg 49%
    17:00 +26°C° 0 mm 2 m/s 751 mmHg 55%
    18:00 +24°C° 0 mm 1 m/s 751 mmHg 61%
    19:00 +22°C° 0 mm 1 m/s 751 mmHg 68%
    20:00 +22°C° 0 mm 1 m/s 751 mmHg 68%
    21:00 +21°C° 0 mm 1 m/s 752 mmHg 69%
    22:00 +21°C° 0 mm 1 m/s 752 mmHg 69%
    23:00 +20°C° 0 mm 1 m/s 752 mmHg 69%

    30 Abril, Segunda-feira

    Tempo Temperatura Precipitação Vento Pressão Humidade
    00:00 +20°C° 0 mm 1 m/s 752 mmHg 69%
    01:00 +20°C° 0 mm 1 m/s 752 mmHg 68%
    02:00 +19°C° 0 mm 1 m/s 752 mmHg 68%
    03:00 +19°C° 0 mm 1 m/s 751 mmHg 68%
    04:00 +18°C° 0 mm 2 m/s 751 mmHg 67%
    05:00 +19°C° 0 mm 2 m/s 752 mmHg 66%
    06:00 +20°C° 0 mm 2 m/s 752 mmHg 64%
    07:00 +23°C° 0 mm 2 m/s 752 mmHg 62%
    08:00 +24°C° 0 mm 3 m/s 752 mmHg 59%
    09:00 +25°C° 0 mm 3 m/s 752 mmHg 56%
    10:00 +26°C° 0 mm 3 m/s 752 mmHg 53%
    11:00 +27°C° 0 mm 3 m/s 752 mmHg 51%
    12:00 +27°C° 0 mm 3 m/s 752 mmHg 50%
    13:00 +27°C° 0 mm 3 m/s 752 mmHg 49%
    14:00 +27°C° 0 mm 3 m/s 752 mmHg 50%
    15:00 +27°C° 0 mm 2 m/s 752 mmHg 51%
    16:00 +26°C° 0 mm 2 m/s 752 mmHg 51%
    17:00 +24°C° 0 mm 2 m/s 752 mmHg 58%
    18:00 +23°C° 0 mm 1 m/s 752 mmHg 64%
    19:00 +21°C° 0 mm 1 m/s 752 mmHg 70%
    20:00 +20°C° 0 mm 1 m/s 752 mmHg 71%
    21:00 +20°C° 0 mm 1 m/s 753 mmHg 72%
    22:00 +19°C° 0 mm 1 m/s 753 mmHg 73%
    23:00 +19°C° 0 mm 1 m/s 753 mmHg 71%

    1 Maio, Terça-feira

    Tempo Temperatura Precipitação Vento Pressão Humidade
    00:00 +19°C° 0 mm 1 m/s 753 mmHg 70%
    01:00 +19°C° 0 mm 1 m/s 753 mmHg 69%
    02:00 +18°C° 0 mm 1 m/s 753 mmHg 68%
    03:00 +18°C° 0 mm 1 m/s 753 mmHg 67%
    04:00 +18°C° 0 mm 1 m/s 753 mmHg 66%
    05:00 +19°C° 0 mm 1 m/s 753 mmHg 64%
    06:00 +21°C° 0 mm 1 m/s 753 mmHg 62%
    07:00 +22°C° 0 mm 1 m/s 753 mmHg 60%
    08:00 +23°C° 0 mm 2 m/s 753 mmHg 56%
    09:00 +24°C° 0 mm 2 m/s 753 mmHg 52%
    10:00 +26°C° 0 mm 2 m/s 753 mmHg 47%
    11:00 +26°C° 0 mm 2 m/s 753 mmHg 46%
    12:00 +27°C° 0 mm 3 m/s 752 mmHg 45%
    13:00 +27°C° 0 mm 3 m/s 752 mmHg 44%
    14:00 +27°C° 0 mm 2 m/s 752 mmHg 45%
    15:00 +27°C° 0 mm 2 m/s 752 mmHg 46%
    16:00 +26°C° 0 mm 2 m/s 752 mmHg 47%
    17:00 +25°C° 0 mm 1 m/s 752 mmHg 54%
    18:00 +23°C° 0 mm 1 m/s 752 mmHg 60%
    19:00 +21°C° 0 mm 1 m/s 752 mmHg 66%
    20:00 +21°C° 0 mm 1 m/s 752 mmHg 66%
    21:00 +20°C° 0 mm 1 m/s 752 mmHg 67%
    22:00 +20°C° 0 mm 1 m/s 752 mmHg 67%
    23:00 +20°C° 0 mm 1 m/s 752 mmHg 66%

    2 Maio, Quarta-feira

    Tempo Temperatura Precipitação Vento Pressão Humidade
    00:00 +20°C° 0 mm 1 m/s 752 mmHg 65%
    01:00 +20°C° 0 mm 1 m/s 752 mmHg 65%
    02:00 +20°C° 0 mm 1 m/s 751 mmHg 64%
    03:00 +20°C° 0 mm 1 m/s 751 mmHg 63%
    04:00 +18°C° 0 mm 2 m/s 751 mmHg 62%
    05:00 +20°C° 0 mm 2 m/s 751 mmHg 61%
    06:00 +21°C° 0 mm 2 m/s 751 mmHg 60%
    07:00 +23°C° 0 mm 2 m/s 751 mmHg 58%
    08:00 +25°C° 0 mm 2 m/s 750 mmHg 53%
    09:00 +26°C° 0 mm 3 m/s 750 mmHg 47%
    10:00 +28°C° 0 mm 3 m/s 750 mmHg 42%
    11:00 +28°C° 0 mm 4 m/s 750 mmHg 42%
    12:00 +28°C° 0 mm 4 m/s 750 mmHg 43%
    13:00 +29°C° 0 mm 5 m/s 749 mmHg 44%
    14:00 +28°C° 0 mm 5 m/s 749 mmHg 46%
    15:00 +28°C° 0 mm 5 m/s 749 mmHg 49%
    16:00 +27°C° 0 mm 5 m/s 749 mmHg 52%
    17:00 +26°C° 0 mm 4 m/s 749 mmHg 57%
    18:00 +23°C° 0 mm 4 m/s 749 mmHg 62%
    19:00 +22°C° 0 mm 3 m/s 748 mmHg 67%
    20:00 +22°C° 0 mm 3 m/s 748 mmHg 68%
    21:00 +21°C° 0 mm 4 m/s 749 mmHg 68%
    22:00 +21°C° 0 mm 4 m/s 749 mmHg 69%
    23:00 +21°C° 0 mm 4 m/s 748 mmHg 69%
    Mostrar mais